Meath Environmental Platform

Observations for Trim Market St

Time AQI Temp °C Hum % Pres Pa CO μg/m³ H₂S μg/m³ NO μg/m³ NO₂ μg/m³ O₃ μg/m³ SO₂ μg/m³ PM1 μg/m³ PM2.5 μg/m³ PM10 μg/m³
Wednesday 26 August 2026
14:19 2 25.1 63 56,577 0.15 0 2.56 11.55 42.73 0 9.26 12.29 18.86
14:15 2 25.1 64 56,433 0.21 0 2.85 8.85 41.94 0 9.26 12.73 18.13
14:14 2 25.1 64 56,284 0.22 0 3.01 9.57 42.12 0 8.55 11.22 17.43
14:12 2 25 65 55,866 0.23 0 2.95 11.81 40.29 0 7.84 9.2 13.43
14:09 2 24.8 66 55,133 0.27 0 3.21 15.06 37.39 0 7.84 11.11 15.99
13:59 2 24.1 68 51,498 0.25 0 3.38 14.4 37.56 0 7.13 9 12.63
13:58 2 24 69 50,922 0.25 0 3.39 13.96 34.64 0 5.7 8.49 11.98
13:57 2 23.9 69 50,461 0.33 0 3.57 14.5 31.46 0 7.84 10.43 14.5
13:56 2 23.8 69 49,974 0.67 0 3.56 34.61 40.64 0 7.84 11.4 15.76
13:55 2 23.7 69 49,673 0.33 0 3.59 20.68 39.23 0 7.84 11.39 15.76
13:54 2 23.5 69 49,733 0.29 0 3.15 13.26 35.07 0 8.55 11.86 16.37
13:53 2 23.5 69 49,204 0.2 0 2.46 12.82 35.71 0 9.98 12.33 18.25
13:52 2 23.4 70 48,458 0.23 0 1.95 14.13 33.62 0 8.55 11.84 16.98
13:51 2 23.3 70 47,918 0.26 0 2.07 13.4 34.8 0 6.41 8.42 13.82
13:50 2 23.2 70 47,456 0.34 0 2.08 13.67 32.59 0 9.26 11.33 15.69
13:49 2 23.2 70 46,828 0.27 0 1.96 13.73 38.23 0 8.55 10.36 15.69
13:48 2 23.1 70 46,435 0.29 0 1.95 13.9 30.8 0 9.26 10.83 15.05
13:47 2 23.1 70 46,137 0.44 0 2.46 15.25 34.55 0 8.55 11.31 16.3
13:46 2 23 70 45,208 0.27 0 2.33 14.1 36.52 0 9.98 11.3 15.66
13:44 2 22.8 71 44,104 0.22 0 1.67 13.18 33.05 0 7.84 10.79 15.01